Weather History for Fort Payne, AL

Change the Weather History Date:

Thursday, January 10, 2013

  Actual Average (KRMG) Record (KRMG)
Temperature  
Mean Temperature 58 °F 41 °F  
Max Temperature 64 °F 52 °F 73 °F (2006)
Min Temperature 53 °F 30 °F 19 °F (1999)
Degree Days  
Heating Degree Days 8 24  
Month to date heating degree days 240  
Since 1 July heating degree days 1540  
Growing Degree Days 8 (Base 50)    
Moisture  
Dew Point 54 °F    
Average Humidity 81    
Maximum Humidity 88    
Minimum Humidity 77    
Precipitation  
Precipitation 0.01 in 0.14 in 1.08 in (2000)
Month to date precipitation 1.13  
Year to date precipitation 1.13  
Snow  
Snow 0.00 in - - ()
Month to date snowfall  
Since 1 July snowfall  
Snow Depth -    
Sea Level Pressure  
Sea Level Pressure 30.28 in    
Wind  
Wind Speed 6 mph (East)    
Max Wind Speed 20 mph    
Max Gust Speed 30 mph    
Visibility 9 miles    
Events Rain    
T = Trace of Precipitation, MM = Missing Value Source: NWS Daily Summary

Daily Weather History Graph

Daily Weather History Graph

Search for Another Location

Airport:

Trip Planner

Search our weather history database for the weather conditions in past years. The results will help you decide how hot, cold, wet, or windy it might be!

Date:

Astronomy

Jan. 10, 2013 Rise Set
Actual Time 6:50 AM CST 4:51 PM CST
Civil Twilight 6:22 AM CST 5:18 PM CST
Nautical Twilight 5:51 AM CST 5:49 PM CST
Astronomical Twilight 5:21 AM CST 6:20 PM CST
Moon 5:29 AM CST (1/10) 3:57 PM CST (1/10)
Length of Visible Light 10h 56m
Length of Day
10h 01m
Waning Crescent, 2% of the Moon is Illuminated
Jan 10
Waning Crescent
Jan 11
New
Jan 18
First Quarter
Jan 26
Full
Feb 3
Last Quarter

Hourly Weather History & Observations

Time (CST) Temp. Dew Point Humidity Pressure Visibility Wind Dir Wind Speed Gust Speed Precip Events Conditions
12:15 AM 55.4 °F 50.0 °F 82% 30.38 in 10.0 mi NE 8.1 mph - N/A   Overcast
12:35 AM 55.4 °F 50.0 °F 82% 30.39 in 10.0 mi NE 4.6 mph - N/A   Overcast
12:55 AM 53.6 °F 50.0 °F 88% 30.38 in 10.0 mi NE 6.9 mph - N/A   Overcast
2:15 AM 53.6 °F 50.0 °F 88% 30.38 in 10.0 mi NNE 3.5 mph - N/A   Overcast
2:35 AM 53.6 °F 50.0 °F 88% 30.38 in 10.0 mi Calm Calm - N/A   Overcast
2:55 AM 55.4 °F 50.0 °F 82% 30.37 in 10.0 mi North 6.9 mph - N/A   Overcast
3:15 AM 55.4 °F 50.0 °F 82% 30.36 in 10.0 mi NE 3.5 mph - N/A   Overcast
3:35 AM 57.2 °F 50.0 °F 77% 30.36 in 10.0 mi Calm Calm - N/A   Overcast
3:55 AM 57.2 °F 51.8 °F 82% 30.35 in 10.0 mi NE 4.6 mph - N/A   Overcast
4:15 AM 57.2 °F 51.8 °F 82% 30.34 in 10.0 mi North 8.1 mph - N/A   Overcast
4:35 AM 59.0 °F 51.8 °F 77% 30.34 in 10.0 mi NE 4.6 mph - N/A   Overcast
4:55 AM 59.0 °F 51.8 °F 77% 30.34 in 10.0 mi NE 4.6 mph - N/A   Overcast
5:15 AM 59.0 °F 51.8 °F 77% 30.35 in 10.0 mi Calm Calm - N/A   Overcast
5:35 AM 59.0 °F 51.8 °F 77% 30.34 in 10.0 mi NE 5.8 mph - N/A   Overcast
6:35 AM 57.2 °F 51.8 °F 82% 30.34 in 7.0 mi NNE 4.6 mph - N/A   Overcast
6:55 AM 57.2 °F 51.8 °F 82% 30.34 in 7.0 mi NNE 5.8 mph - N/A   Overcast
7:15 AM 57.2 °F 51.8 °F 82% 30.34 in 7.0 mi NNE 5.8 mph - N/A   Overcast
7:35 AM 57.2 °F 51.8 °F 82% 30.34 in 5.0 mi NE 3.5 mph - N/A   Haze
7:55 AM 57.2 °F 53.6 °F 88% 30.35 in 5.0 mi NE 3.5 mph - N/A   Overcast
8:35 AM 59.0 °F 53.6 °F 82% 30.36 in 5.0 mi NE 3.5 mph - N/A   Haze
8:55 AM 59.0 °F 53.6 °F 82% 30.36 in 7.0 mi ENE 6.9 mph - N/A   Overcast
9:15 AM 59.0 °F 53.6 °F 82% 30.37 in 7.0 mi Calm Calm - N/A   Overcast
9:35 AM 59.0 °F 53.6 °F 82% 30.37 in 10.0 mi NNE 4.6 mph - N/A   Overcast
9:55 AM 59.0 °F 53.6 °F 82% 30.37 in 7.0 mi ESE 10.4 mph 16.1 mph N/A   Overcast
10:15 AM 59.0 °F 53.6 °F 82% 30.37 in 4.0 mi East 6.9 mph - N/A   Haze
10:35 AM 59.0 °F 53.6 °F 82% 30.35 in 4.0 mi East 9.2 mph - N/A   Haze
10:55 AM 60.8 °F 53.6 °F 77% 30.33 in 7.0 mi ENE 3.5 mph 17.3 mph N/A   Overcast
11:15 AM 60.8 °F 53.6 °F 77% 30.33 in 7.0 mi ESE 6.9 mph - N/A   Overcast
11:35 AM 60.8 °F 53.6 °F 77% 30.32 in 7.0 mi East 6.9 mph - N/A   Overcast
11:55 AM 60.8 °F 53.6 °F 77% 30.31 in 7.0 mi ESE 4.6 mph - N/A   Overcast
12:15 PM 59.0 °F 53.6 °F 82% 30.30 in 5.0 mi Calm Calm - N/A   Light Drizzle
12:35 PM 60.8 °F 55.4 °F 82% 30.30 in 5.0 mi Calm Calm - N/A   Haze
12:55 PM 60.8 °F 55.4 °F 82% 30.29 in 7.0 mi East 6.9 mph - N/A   Overcast
1:15 PM 62.6 °F 55.4 °F 77% 30.28 in 10.0 mi East 8.1 mph - N/A   Overcast
1:35 PM 62.6 °F 55.4 °F 77% 30.28 in 10.0 mi East 5.8 mph - N/A   Overcast
1:55 PM 62.6 °F 55.4 °F 77% 30.27 in 10.0 mi ESE 9.2 mph 19.6 mph N/A   Overcast
2:15 PM 62.6 °F 55.4 °F 77% 30.27 in 10.0 mi ESE 11.5 mph 18.4 mph N/A   Overcast
2:35 PM 62.6 °F 55.4 °F 77% 30.27 in 10.0 mi ESE 4.6 mph 18.4 mph N/A   Overcast
2:55 PM 62.6 °F 55.4 °F 77% 30.27 in 10.0 mi SE 8.1 mph - N/A   Overcast
3:15 PM 62.6 °F 55.4 °F 77% 30.26 in 10.0 mi SE 9.2 mph 17.3 mph N/A   Overcast
3:35 PM 62.6 °F 55.4 °F 77% 30.26 in 10.0 mi SE 5.8 mph - N/A   Overcast
3:55 PM 62.6 °F 55.4 °F 77% 30.26 in 10.0 mi SE 4.6 mph - N/A   Overcast
4:15 PM 60.8 °F 55.4 °F 82% 30.27 in 10.0 mi ESE 6.9 mph - N/A   Overcast
4:35 PM 60.8 °F 55.4 °F 82% 30.27 in 10.0 mi ESE 6.9 mph - N/A   Overcast
4:55 PM 60.8 °F 55.4 °F 82% 30.27 in 10.0 mi ESE 8.1 mph - 0.01 in Rain Light Rain
5:15 PM 60.8 °F 55.4 °F 82% 30.25 in 10.0 mi SE 9.2 mph - N/A   Overcast
5:35 PM 60.8 °F 55.4 °F 82% 30.24 in 7.0 mi SE 5.8 mph - N/A   Overcast
5:55 PM 62.6 °F 55.4 °F 77% 30.24 in 10.0 mi SSE 3.5 mph - N/A   Overcast
6:15 PM 62.6 °F 55.4 °F 77% 30.23 in 10.0 mi ESE 5.8 mph - N/A   Overcast
6:35 PM 62.6 °F 55.4 °F 77% 30.23 in 10.0 mi ESE 6.9 mph - N/A   Overcast
6:55 PM 62.6 °F 55.4 °F 77% 30.22 in 10.0 mi SE 8.1 mph - N/A   Overcast
7:15 PM 62.6 °F 55.4 °F 77% 30.21 in 10.0 mi ESE 6.9 mph 16.1 mph N/A   Overcast
7:35 PM 62.6 °F 55.4 °F 77% 30.21 in 10.0 mi SE 10.4 mph 17.3 mph N/A   Overcast
7:55 PM 62.6 °F 55.4 °F 77% 30.20 in 10.0 mi SE 8.1 mph 18.4 mph N/A   Overcast
8:15 PM 62.6 °F 55.4 °F 77% 30.21 in 10.0 mi SSE 3.5 mph - N/A   Overcast
8:35 PM 62.6 °F 57.2 °F 82% 30.20 in 10.0 mi SE 9.2 mph 18.4 mph N/A   Overcast
8:55 PM 62.6 °F 57.2 °F 82% 30.18 in 10.0 mi SE 9.2 mph - N/A   Overcast
9:15 PM 62.6 °F 57.2 °F 82% 30.16 in 10.0 mi SE 5.8 mph 17.3 mph N/A   Overcast
9:35 PM 62.6 °F 57.2 °F 82% 30.14 in 10.0 mi SE 11.5 mph 24.2 mph N/A   Overcast
9:55 PM 62.6 °F 57.2 °F 82% 30.11 in 10.0 mi SSE 8.1 mph 23.0 mph N/A   Overcast
10:15 PM 62.6 °F 59.0 °F 88% 30.11 in 10.0 mi SE 9.2 mph 19.6 mph N/A   Overcast
10:35 PM 62.6 °F 59.0 °F 88% 30.10 in 10.0 mi SSE 19.6 mph 29.9 mph N/A   Overcast
10:55 PM 62.6 °F 59.0 °F 88% 30.09 in 10.0 mi SE 15.0 mph 25.3 mph N/A   Overcast
11:15 PM 62.6 °F 59.0 °F 88% 30.09 in 10.0 mi SSE 5.8 mph 24.2 mph N/A   Overcast
11:55 PM 64.4 °F 59.0 °F 83% 30.10 in 10.0 mi SSW 10.4 mph 23.0 mph N/A Rain Light Rain